Погода в Серго-Поливанове

Россия / Пензенская область     53°44′40″N   42°48′00″E
темп.,
°C
ветер,
м/с
пор.,
м/с
влажн.,
%
обл.,
%
осадки,
мм/ч
давл.,
гПа
погр.,
м
14 мая, пт
пт1400:00+13ююв118998 0.0 101810
03:00+13вюв1290100 0.0 101810
06:00+15в2292100 0.0 101859
09:00+20юв22765 0.1 1018514
12:00+23ююв345830 0.0 10181215
15:00+24ююв5654100 0.0 10161320
18:00+23ююв3473100 0.0 1016109
21:00+18юв498583 0.4 1015133
15 мая, сб
сб1500:00+17юв4119099 0.0 1014198
03:00+16юв4118868 0.0 1013180
06:00+16ююв41085100 0.0 1014256
09:00+20ююв696753 0.0 1014439
12:00+23ю7116174 0.0 1014829
15:00+24ю685636 0.0 10141296
18:00+22ю497090 0.1 1014336
21:00+18ю348477 0.2 101446
16 мая, вс
вс1600:00+16ююз229298 1.0 101433
03:00+16зюз1292100 1.0 101411
06:00+17юз0087100 0.0 101542
09:00+18ююв1183100 1.3 1016162
12:00+22ююз2367100 0.0 1016780
15:00+23зюз13665 0.1 1015585
18:00+23ю357029 0.8 1014181
21:00+18ю237792 0.8 101522
17 мая, пн
пн1700:00+16юв227699 0.0 101511
03:00+15вюв3379100 0.0 101624
06:00+16вюв3880100 0.0 1015147
09:00+23ююв595710 0.0 1015415
12:00+25ююв684410 0.0 1015964
15:00+26ююв585083 0.0 10141174
18:00+23юв41165100 0.0 1014326
21:00+18юв4117435 0.0 1014166
18 мая, вт
вт1800:00+17юв5136366 0.0 1013209
03:00+16юв513554 0.0 1013201
06:00+16юв5136521 0.0 1012234
09:00+22ююв6135662 0.0 1012462
12:00+25ююв7104896 0.0 1012805
15:00+27юв6115038 0.0 10111542
18:00+23ююв51167100 0.0 1010325
21:00+19ююв357799 0.0 101176